| time (UTC) | temp C | wind direction | speed KPH | gust KPH | rain 1hr cm | rain 24hr cm | rain mn cm | humidity % | barometer mb |
| 20260504050016 | 11 | 225 | 6.4 | 12.9 | 0.00 | 0.00 | 0.00 | 58 | 1007.2 |
| 20260504043015 | 12 | 247 | 4.8 | 12.9 | 0.00 | 0.00 | 0.00 | 57 | 1007.3 |
| 20260504040016 | 12 | 225 | 6.4 | 19.3 | 0.00 | 0.00 | 0.00 | 57 | 1007.3 |
| 20260504033015 | 12 | 225 | 6.4 | 17.7 | 0.00 | 0.00 | 0.00 | 58 | 1007.2 |
| 20260504030015 | 12 | 225 | 4.8 | 12.9 | 0.00 | 0.00 | 0.00 | 59 | 1007.4 |
| 20260504023035 | 11 | 225 | 6.4 | 19.3 | 0.00 | 0.00 | 0.00 | 60 | 1007.7 |
| 20260504020015 | 11 | 247 | 3.2 | 14.5 | 0.00 | 0.00 | 0.00 | 65 | 1007.7 |
| 20260504013017 | 10 | 315 | 3.2 | 12.9 | 0.00 | 0.00 | 0.00 | 70 | 1007.9 |
| 20260504010017 | 10 | 315 | 3.2 | 12.9 | 0.00 | 0.00 | 0.00 | 73 | 1008.0 |
| 20260504003018 | 11 | 270 | 4.8 | 14.5 | 0.00 | 0.00 | 0.00 | 73 | 1008.4 |
| 20260504000017 | 11 | 292 | 6.4 | 32.2 | 0.00 | 0.00 | 0.00 | 67 | 1008.1 |
| 20260503233016 | 12 | 247 | 9.7 | 30.6 | 0.00 | 0.00 | 0.00 | 60 | 1008.0 |
| 20260503230037 | 13 | 270 | 8.0 | 24.1 | 0.00 | 0.00 | 0.00 | 51 | 1007.4 |
| 20260503223016 | 13 | 292 | 4.8 | 20.9 | 0.00 | 0.00 | 0.00 | 48 | 1007.1 |
| 20260503220016 | 14 | 270 | 4.8 | 25.7 | 0.00 | 0.00 | 0.00 | 49 | 1007.7 |
| 20260503213017 | 15 | 292 | 4.8 | 16.1 | 0.00 | 0.00 | 0.00 | 45 | 1007.4 |
| 20260503210017 | 15 | 270 | 6.4 | 29.0 | 0.00 | 0.00 | 0.00 | 43 | 1007.5 |
| 20260503203016 | 15 | 247 | 6.4 | 25.7 | 0.00 | 0.00 | 0.00 | 41 | 1007.8 |
| 20260503200016 | 15 | 225 | 6.4 | 20.9 | 0.00 | 0.00 | 0.00 | 44 | 1008.3 |
| 20260503193016 | 14 | 315 | 8.0 | 30.6 | 0.00 | 0.00 | 0.00 | 43 | 1008.9 |
| 20260503190036 | 13 | 247 | 6.4 | 27.4 | 0.00 | 0.00 | 0.00 | 43 | 1009.4 |
| 20260503183016 | 13 | 337 | 4.8 | 17.7 | 0.00 | 0.00 | 0.00 | 50 | 1009.7 |
| 20260503180016 | 14 | 292 | 6.4 | 25.7 | 0.00 | 0.00 | 0.00 | 51 | 1009.8 |
| 20260503173017 | 14 | 292 | 6.4 | 25.7 | 0.00 | 0.00 | 0.00 | 48 | 1010.1 |